sat.trackr.live / text

‹ back to catalog

STARLINK-36246

NORAD 67939 · 2026-037H

PAYLOAD ACTIVE UNKNOWN

§ Identity

Operator
Country
US
Launch date
2026-02-24
Launch site
AFETR
Launch vehicle
Mass (kg)
RCS (m²)

Purposes: comms

External: N2YO · Heavens-Above · Gunter

§ Orbital elements

Epoch: 2026-09-19T10:55:43.025376Z

Period
94.27 min
Inclination
42.9972°
Eccentricity
0.0000861
Mean motion
15.27597955 rev/d
Perigee alt
482.4 km
Apogee alt
483.6 km
Semi-major
6,861.1 km
B*
4.5159e-4
RAAN
176.5336°
Arg perigee
357.8057°
Mean anomaly
2.2790°
Rev number
3,297

§ Raw data

STARLINK-362461 67939U 26037H   26262.45535909  .00012192  00000+0  45159-3 0  99912 67939  42.9972 176.5336 0000861 357.8057   2.2790 15.27597955 32976

JSON: /api/v1/satellites/67939 · /tle

For live sub-satellite position, see the globe view (requires WebGL).

§ Visibility from observer

Set your observer location to see the next 7 days of passes ≥ 10°. The values pass through the URL so the page stays shareable.

No JS? Fill the form by hand. The geolocation button needs JavaScript.